Time,TemperatureF,DewpointF,PressureIn,WindDirection,WindDirectionDegrees,WindSpeedMPH,WindSpeedGustMPH,Humidity,HourlyPrecipIn,Conditions,Clouds,dailyrainin,SolarRadiationWatts/m^2,SoftwareType,DateUTC
2013-03-26 00:02:00,46.0,41.0,-100.00,SE,126,1.0,3.0,82,0.00,,,0.00,0.000000,,2013-03-26 07:02:00,
2013-03-26 00:33:00,46.0,41.0,-100.00,NE,52,0.0,3.0,83,0.00,,,0.00,0.000000,,2013-03-26 07:33:00,
2013-03-26 00:43:00,46.0,41.0,-100.00,NE,52,0.0,3.0,83,0.00,,,0.00,0.000000,,2013-03-26 07:43:00,
2013-03-26 00:52:00,46.0,41.0,-100.00,NE,52,0.0,3.0,83,0.00,,,0.00,0.000000,,2013-03-26 07:52:00,
2013-03-26 01:02:00,46.0,41.0,-100.00,NE,52,0.0,3.0,83,0.00,,,0.00,0.000000,,2013-03-26 08:02:00,
2013-03-26 01:22:00,44.0,40.0,-100.00,NNE,22,0.0,4.0,87,0.00,,,0.00,0.000000,,2013-03-26 08:22:00,
2013-03-26 01:32:00,44.0,40.0,-100.00,NNE,22,0.0,4.0,87,0.00,,,0.00,0.000000,,2013-03-26 08:32:00,
2013-03-26 01:42:00,44.0,40.0,-100.00,NNE,22,0.0,4.0,87,0.00,,,0.00,0.000000,,2013-03-26 08:42:00,
2013-03-26 01:52:00,44.0,40.0,-100.00,NNE,22,0.0,4.0,87,0.00,,,0.00,0.000000,,2013-03-26 08:52:00,
2013-03-26 02:01:00,44.0,40.0,-100.00,NNE,22,0.0,4.0,87,0.00,,,0.00,0.000000,,2013-03-26 09:01:00,
2013-03-26 02:33:00,42.0,40.0,-100.00,East,94,1.0,3.0,91,0.00,,,0.00,0.000000,,2013-03-26 09:33:00,
2013-03-26 02:43:00,42.0,40.0,-100.00,East,94,1.0,3.0,91,0.00,,,0.00,0.000000,,2013-03-26 09:43:00,
2013-03-26 02:52:00,42.0,40.0,-100.00,East,94,1.0,3.0,91,0.00,,,0.00,0.000000,,2013-03-26 09:52:00,
2013-03-26 03:02:00,42.0,40.0,-100.00,East,94,1.0,3.0,91,0.00,,,0.00,0.000000,,2013-03-26 10:02:00,
2013-03-26 03:33:00,41.0,39.0,-100.00,ESE,120,0.0,2.0,92,0.00,,,0.00,0.000000,,2013-03-26 10:33:00,
2013-03-26 03:42:00,41.0,39.0,-100.00,ESE,120,0.0,2.0,92,0.00,,,0.00,0.000000,,2013-03-26 10:42:00,
2013-03-26 03:52:00,41.0,39.0,-100.00,ESE,120,0.0,2.0,92,0.00,,,0.00,0.000000,,2013-03-26 10:52:00,
2013-03-26 04:02:00,41.0,39.0,-100.00,ESE,120,0.0,2.0,92,0.00,,,0.00,0.000000,,2013-03-26 11:02:00,
2013-03-26 04:33:00,40.0,38.0,-100.00,SE,138,1.0,3.0,93,0.00,,,0.00,0.000000,,2013-03-26 11:33:00,
2013-03-26 04:43:00,40.0,38.0,-100.00,SE,138,1.0,3.0,93,0.00,,,0.00,0.000000,,2013-03-26 11:43:00,
2013-03-26 04:52:00,40.0,38.0,-100.00,SE,138,1.0,3.0,93,0.00,,,0.00,0.000000,,2013-03-26 11:52:00,
2013-03-26 05:02:00,40.0,38.0,-100.00,SE,138,1.0,3.0,93,0.00,,,0.00,0.000000,,2013-03-26 12:02:00,
2013-03-26 05:32:00,39.0,37.0,-100.00,ESE,121,1.0,3.0,93,0.00,,,0.00,0.000000,,2013-03-26 12:32:00,
2013-03-26 05:43:00,39.0,37.0,-100.00,ESE,121,1.0,3.0,93,0.00,,,0.00,0.000000,,2013-03-26 12:43:00,
2013-03-26 05:52:00,39.0,37.0,-100.00,ESE,121,1.0,3.0,93,0.00,,,0.00,0.000000,,2013-03-26 12:52:00,
2013-03-26 06:02:00,39.0,37.0,-100.00,ESE,121,1.0,3.0,93,0.00,,,0.00,0.000000,,2013-03-26 13:02:00,
2013-03-26 06:32:00,38.0,36.0,-100.00,SSW,210,0.0,2.0,94,0.00,,,0.00,0.000000,,2013-03-26 13:32:00,
2013-03-26 06:42:00,38.0,36.0,-100.00,SSW,210,0.0,2.0,94,0.00,,,0.00,0.000000,,2013-03-26 13:42:00,
2013-03-26 06:52:00,38.0,36.0,-100.00,SSW,210,0.0,2.0,94,0.00,,,0.00,0.000000,,2013-03-26 13:52:00,
2013-03-26 07:01:00,38.0,36.0,-100.00,SSW,210,0.0,2.0,94,0.00,,,0.00,0.000000,,2013-03-26 14:01:00,
2013-03-26 07:33:00,39.0,38.0,-100.00,SSW,210,3.0,6.0,95,0.00,,,0.00,0.000000,,2013-03-26 14:33:00,
2013-03-26 07:42:00,39.0,38.0,-100.00,SSW,210,3.0,6.0,95,0.00,,,0.00,0.000000,,2013-03-26 14:42:00,
2013-03-26 07:52:00,39.0,38.0,-100.00,SSW,210,3.0,6.0,95,0.00,,,0.00,0.000000,,2013-03-26 14:52:00,
2013-03-26 08:02:00,39.0,38.0,-100.00,SSW,210,3.0,6.0,95,0.00,,,0.00,0.000000,,2013-03-26 15:02:00,
2013-03-26 08:33:00,44.0,39.0,-100.00,SSW,206,2.0,6.0,82,0.00,,,0.00,65.000000,,2013-03-26 15:33:00,
2013-03-26 08:43:00,44.0,39.0,-100.00,SSW,206,2.0,6.0,82,0.00,,,0.00,65.000000,,2013-03-26 15:43:00,
2013-03-26 08:52:00,44.0,39.0,-100.00,SSW,206,2.0,6.0,82,0.00,,,0.00,65.000000,,2013-03-26 15:52:00,
2013-03-26 09:02:00,44.0,39.0,-100.00,SSW,206,2.0,6.0,82,0.00,,,0.00,65.000000,,2013-03-26 16:02:00,
2013-03-26 09:33:00,52.0,39.0,-100.00,East,93,2.0,4.0,61,0.00,,,0.00,272.000000,,2013-03-26 16:33:00,
2013-03-26 09:42:00,52.0,39.0,-100.00,East,93,2.0,4.0,61,0.00,,,0.00,272.000000,,2013-03-26 16:42:00,
2013-03-26 09:53:00,52.0,39.0,-100.00,East,93,2.0,4.0,61,0.00,,,0.00,272.000000,,2013-03-26 16:53:00,
2013-03-26 10:02:00,52.0,39.0,-100.00,East,93,2.0,4.0,61,0.00,,,0.00,272.000000,,2013-03-26 17:02:00,
2013-03-26 10:33:00,57.0,38.0,-100.00,East,96,3.0,5.0,49,0.00,,,0.00,452.000000,,2013-03-26 17:33:00,
2013-03-26 10:42:00,57.0,38.0,-100.00,East,96,3.0,5.0,49,0.00,,,0.00,452.000000,,2013-03-26 17:42:00,
2013-03-26 10:53:00,57.0,38.0,-100.00,East,96,3.0,5.0,49,0.00,,,0.00,452.000000,,2013-03-26 17:53:00,
2013-03-26 11:02:00,57.0,38.0,-100.00,East,96,3.0,5.0,49,0.00,,,0.00,452.000000,,2013-03-26 18:02:00,
2013-03-26 12:23:00,66.0,39.0,-100.00,NE,49,4.0,11.0,37,-99.99,,,0.00,803.000000,,2013-03-26 19:23:00,
2013-03-26 12:33:00,66.0,39.0,-100.00,NE,49,4.0,11.0,37,-99.99,,,0.00,803.000000,,2013-03-26 19:33:00,
2013-03-26 12:42:00,66.0,39.0,-100.00,NE,49,4.0,11.0,37,-99.99,,,0.00,803.000000,,2013-03-26 19:42:00,
2013-03-26 12:53:00,66.0,39.0,-100.00,NE,49,4.0,11.0,37,-99.99,,,0.00,803.000000,,2013-03-26 19:53:00,
2013-03-26 13:01:00,66.0,39.0,-100.00,NE,49,4.0,11.0,37,-99.99,,,0.00,803.000000,,2013-03-26 20:01:00,
2013-03-26 13:32:00,70.0,40.0,-100.00,East,99,8.0,15.0,34,0.00,,,0.00,766.000000,,2013-03-26 20:32:00,
2013-03-26 13:43:00,70.0,40.0,-100.00,East,99,8.0,15.0,34,0.00,,,0.00,766.000000,,2013-03-26 20:43:00,
2013-03-26 13:52:00,70.0,40.0,-100.00,East,99,8.0,15.0,34,0.00,,,0.00,766.000000,,2013-03-26 20:52:00,
2013-03-26 14:01:00,70.0,40.0,-100.00,East,99,8.0,15.0,34,0.00,,,0.00,766.000000,,2013-03-26 21:01:00,
2013-03-26 14:33:00,72.0,42.0,-100.00,East,97,8.0,14.0,34,0.00,,,0.00,717.000000,,2013-03-26 21:33:00,
2013-03-26 14:43:00,72.0,42.0,-100.00,East,97,8.0,14.0,34,0.00,,,0.00,717.000000,,2013-03-26 21:43:00,
2013-03-26 14:52:00,72.0,42.0,-100.00,East,97,8.0,14.0,34,0.00,,,0.00,717.000000,,2013-03-26 21:52:00,
2013-03-26 15:01:00,72.0,42.0,-100.00,East,97,8.0,14.0,34,0.00,,,0.00,717.000000,,2013-03-26 22:01:00,
2013-03-26 15:23:00,74.0,43.0,-100.00,ENE,71,6.0,11.0,33,0.00,,,0.00,578.000000,,2013-03-26 22:23:00,
2013-03-26 15:33:00,74.0,43.0,-100.00,ENE,71,6.0,11.0,33,0.00,,,0.00,578.000000,,2013-03-26 22:33:00,
2013-03-26 15:42:00,74.0,43.0,-100.00,ENE,71,6.0,11.0,33,0.00,,,0.00,578.000000,,2013-03-26 22:42:00,
2013-03-26 15:52:00,74.0,43.0,-100.00,ENE,71,6.0,11.0,33,0.00,,,0.00,578.000000,,2013-03-26 22:52:00,
2013-03-26 16:00:00,74.0,43.0,-100.00,ENE,71,6.0,11.0,33,0.00,,,0.00,578.000000,,2013-03-26 23:00:00,
2013-03-26 16:32:00,74.0,43.0,-100.00,East,86,5.0,10.0,33,-99.99,,,0.00,361.000000,,2013-03-26 23:32:00,
2013-03-26 16:42:00,74.0,43.0,-100.00,East,86,5.0,10.0,33,-99.99,,,0.00,361.000000,,2013-03-26 23:42:00,
2013-03-26 16:52:00,74.0,43.0,-100.00,East,86,5.0,10.0,33,-99.99,,,0.00,361.000000,,2013-03-26 23:52:00,
2013-03-26 17:01:00,74.0,43.0,-100.00,East,86,5.0,10.0,33,-99.99,,,0.00,361.000000,,2013-03-27 00:01:00,
2013-03-26 17:33:00,73.0,44.0,-100.00,WNW,293,3.0,8.0,35,0.00,,,0.00,472.000000,,2013-03-27 00:33:00,
2013-03-26 18:23:00,70.0,45.0,-100.00,NE,46,3.0,6.0,40,-99.99,,,0.00,115.000000,,2013-03-27 01:23:00,
2013-03-26 18:33:00,70.0,45.0,-100.00,NE,46,3.0,6.0,40,-99.99,,,0.00,115.000000,,2013-03-27 01:33:00,
2013-03-26 18:42:00,70.0,45.0,-100.00,NE,46,3.0,6.0,40,-99.99,,,0.00,115.000000,,2013-03-27 01:42:00,
2013-03-26 18:53:00,70.0,45.0,-100.00,NE,46,3.0,6.0,40,-99.99,,,0.00,115.000000,,2013-03-27 01:53:00,
2013-03-26 19:02:00,70.0,45.0,-100.00,NE,46,3.0,6.0,40,-99.99,,,0.00,115.000000,,2013-03-27 02:02:00,
2013-03-26 19:32:00,65.0,43.0,-100.00,ENE,62,5.0,11.0,44,-99.99,,,0.00,34.000000,,2013-03-27 02:32:00,
2013-03-26 19:42:00,65.0,43.0,-100.00,ENE,62,5.0,11.0,44,-99.99,,,0.00,34.000000,,2013-03-27 02:42:00,
2013-03-26 19:52:00,65.0,43.0,-100.00,ENE,62,5.0,11.0,44,-99.99,,,0.00,34.000000,,2013-03-27 02:52:00,
2013-03-26 20:02:00,65.0,43.0,-100.00,ENE,62,5.0,11.0,44,-99.99,,,0.00,34.000000,,2013-03-27 03:02:00,
2013-03-26 20:33:00,59.0,44.0,-100.00,SSW,213,0.0,11.0,58,-99.99,,,0.00,3.000000,,2013-03-27 03:33:00,
2013-03-26 20:42:00,59.0,44.0,-100.00,SSW,213,0.0,11.0,58,-99.99,,,0.00,3.000000,,2013-03-27 03:42:00,
2013-03-26 20:53:00,59.0,44.0,-100.00,SSW,213,0.0,11.0,58,-99.99,,,0.00,3.000000,,2013-03-27 03:53:00,
2013-03-26 21:02:00,59.0,44.0,-100.00,SSW,213,0.0,11.0,58,-99.99,,,0.00,3.000000,,2013-03-27 04:02:00,
2013-03-26 21:33:00,56.0,45.0,-100.00,South,186,0.0,3.0,66,0.00,,,0.00,0.000000,,2013-03-27 04:33:00,
2013-03-26 21:43:00,56.0,45.0,-100.00,South,186,0.0,3.0,66,0.00,,,0.00,0.000000,,2013-03-27 04:43:00,
2013-03-26 21:52:00,56.0,45.0,-100.00,South,186,0.0,3.0,66,0.00,,,0.00,0.000000,,2013-03-27 04:52:00,
2013-03-26 22:02:00,56.0,45.0,-100.00,South,186,0.0,3.0,66,0.00,,,0.00,0.000000,,2013-03-27 05:02:00,
2013-03-26 22:23:00,53.0,43.0,-100.00,ENE,77,2.0,8.0,68,0.00,,,0.00,0.000000,,2013-03-27 05:23:00,
2013-03-26 22:33:00,53.0,43.0,-100.00,ENE,77,2.0,8.0,68,0.00,,,0.00,0.000000,,2013-03-27 05:33:00,
2013-03-26 22:42:00,53.0,43.0,-100.00,ENE,77,2.0,8.0,68,0.00,,,0.00,0.000000,,2013-03-27 05:42:00,
2013-03-26 22:52:00,53.0,43.0,-100.00,ENE,77,2.0,8.0,68,0.00,,,0.00,0.000000,,2013-03-27 05:52:00,
2013-03-26 23:02:00,53.0,43.0,-100.00,ENE,77,2.0,8.0,68,0.00,,,0.00,0.000000,,2013-03-27 06:02:00,
2013-03-26 23:32:00,51.0,42.0,-100.00,East,86,3.0,6.0,72,0.00,,,0.00,0.000000,,2013-03-27 06:32:00,
2013-03-26 23:42:00,51.0,42.0,-100.00,East,86,3.0,6.0,72,0.00,,,0.00,0.000000,,2013-03-27 06:42:00,
2013-03-26 23:53:00,51.0,42.0,-100.00,East,86,3.0,6.0,72,0.00,,,0.00,0.000000,,2013-03-27 06:53:00,